Theta_e
310 311 311 311 311 311 310 310 310 311 315 316 313 313 313 313 312 314 319 320 320 320 322 322 323 321 322 322
310 310 311 311 311 311 311 310 310 314 315 311 312 312 313 313 313 314 315 318 319 320 321 321 320 322 322 322
309 309 310 310 311 311 311 310 313 315 317 313 314 313 314 314 314 316 317 317 318 320 321 322 322 322 322 322
308 308 309 309 309 309 310 310 310 315 313 315 313 312 312 313 316 317 318 318 319 321 322 322 321 320 319 319
308 310 311 313 319 319 317 315 314 314 315 314 313 313 313 315 316 317 319 320 319 320 320 319 318 318 318 318
310 313 315 318 316 318 318 315 315 316 315 314 316 315 314 316 316 319 319 320 323 320 317 318 317 318 320 322
310 313 317 315 313 314 320 317 316 317 316 316 317 316 315 316 317 319 319 321 322 318 317 319 320 321 321 322
316 316 318 313 313 316 324 320 318 317 317 316 317 315 314 315 318 320 319 321 319 318 320 320 320 322 321 320
316 319 316 313 315 318 327 318 319 317 317 318 317 318 314 316 319 319 318 320 319 319 319 319 318 319 319 319
315 315 315 314 317 324 326 322 320 319 320 319 319 319 318 317 317 318 319 319 318 318 318 318 318 318 321 321
321 316 316 317 324 323 320 322 321 319 319 320 319 319 321 322 322 322 321 320 319 317 319 320 321 321 319 319
318 318 316 321 322 321 321 319 318 317 320 318 318 316 317 320 317 317 321 323 322 318 316 317 319 319 318 319
316 317 319 321 324 320 315 316 317 318 320 319 313 313 318 321 315 312 318 318 319 317 313 315 315 317 316 315
315 316 320 320 317 310 309 312 317 316 317 315 313 311 311 313 313 310 310 314 309 311 314 310 313 314 310 310
315 317 321 320 314 306 309 312 313 311 314 312 308 308 310 311 309 309 309 308 308 311 313 309 309 309 308 309
314 315 318 312 307 306 306 310 310 310 310 308 306 308 310 311 307 307 307 306 305 305 307 308 307 306 308 309
311 309 308 306 306 306 307 307 308 307 306 307 305 306 307 309 307 305 306 305 307 307 309 310 309 309 309 307
Wind_Speed
7 7 7 7 6 5 4 3 3 4 1 4 3 2 2 3 4 2 2 2 3 4 6 8 6 12 16 17
6 6 6 6 5 4 2 2 3 5 2 1 2 2 2 3 4 3 2 3 3 5 6 8 9 11 11 11
5 5 5 5 4 3 2 2 4 1 4 3 2 1 1 2 2 2 3 3 3 6 6 7 11 11 10 13
4 4 5 5 4 3 2 4 4 2 3 1 1 2 1 1 2 3 4 2 4 6 7 7 9 15 17 18
4 4 7 7 2 3 3 2 2 4 5 2 4 2 1 3 3 4 7 1 6 9 12 12 14 14 15 19
6 6 5 1 2 5 5 6 5 3 2 3 1 0 2 3 3 7 5 7 10 7 6 6 8 12 16 19
7 5 4 4 5 9 2 4 5 5 3 3 2 3 2 3 6 7 5 9 11 2 6 8 12 14 16 18
5 5 1 2 2 5 5 4 1 3 2 1 2 2 2 2 4 6 7 9 3 3 9 13 12 15 6 12
3 1 2 1 1 1 4 3 4 1 3 3 2 2 3 2 7 9 4 2 7 11 12 10 8 12 10 15
2 3 1 1 2 4 2 4 2 4 3 5 3 5 2 2 6 7 9 13 12 5 9 12 8 11 13 19
4 1 1 1 5 4 3 4 2 5 3 5 2 5 3 10 8 8 2 12 1 5 7 11 5 7 15 7
3 1 1 5 5 4 5 2 3 3 3 9 3 6 7 1 12 12 9 6 3 2 9 7 8 15 8 6
1 2 4 4 6 5 4 6 2 3 3 1 6 6 7 5 6 11 8 6 4 4 12 6 7 6 7 9
3 3 4 5 4 5 5 3 3 4 3 6 5 6 2 5 3 8 9 4 9 8 2 7 11 8 6 6
5 3 1 5 7 6 4 5 3 2 3 4 5 5 3 4 2 5 6 8 7 4 10 11 12 13 13 8
2 4 4 4 2 3 5 4 4 5 3 3 4 3 2 2 3 6 7 4 6 9 17 16 9 8 9 1
1 4 7 5 6 2 5 2 2 4 2 2 4 2 2 4 1 7 6 7 2 7 5 5 5 4 8 9
Wind_Direction
132 136 141 144 142 145 139 117 92 101 31 120 174 160 62 28 20 20 335 340 322 296 329 279 289 278 284 283
139 140 144 147 151 147 138 101 71 82 71 171 200 254 299 315 341 330 291 292 298 285 260 298 268 264 279 276
142 143 145 149 149 152 134 80 62 44 110 68 68 248 199 293 305 309 302 282 300 280 259 258 283 223 277 294
153 149 147 139 130 115 55 57 59 189 111 108 42 50 21 14 315 301 296 280 260 264 234 257 281 321 305 301
138 128 126 98 87 97 40 41 37 76 86 14 28 43 16 322 305 277 276 169 276 263 318 325 305 302 289 287
132 116 122 231 166 148 97 53 65 53 354 282 280 121 339 290 277 287 297 245 253 29 347 317 299 290 289 288
120 116 141 152 137 149 211 75 76 55 38 61 58 36 349 319 291 284 282 288 320 344 302 301 291 287 287 300
102 135 85 130 129 158 218 95 119 37 360 8 134 22 339 302 239 303 314 277 59 311 305 298 312 291 350 307
134 118 216 127 102 129 244 61 83 30 12 340 19 73 1 275 292 307 289 281 316 328 306 311 335 290 328 299
139 151 141 109 68 225 160 116 69 354 245 35 52 359 2 335 291 287 252 270 290 293 330 307 295 300 292 292
203 204 103 98 222 271 159 89 24 350 319 5 49 9 40 44 28 329 227 319 48 78 356 333 282 314 330 302
202 185 130 231 256 39 30 33 344 313 349 356 80 351 324 301 42 342 295 333 200 185 30 344 314 304 294 285
168 156 242 237 25 27 2 349 269 260 126 96 328 322 72 37 32 15 353 326 240 350 342 335 300 22 286 345
133 155 249 69 103 47 351 302 341 348 323 22 325 355 21 45 22 15 340 37 292 277 59 330 253 262 14 304
89 242 43 69 113 55 30 360 14 315 45 352 332 326 34 94 13 2 320 324 241 251 267 288 297 292 285 251
196 43 78 70 84 41 40 61 50 38 9 351 302 287 297 7 40 341 331 17 307 286 287 302 310 268 248 295
351 98 116 93 68 71 37 53 93 14 333 302 301 250 282 113 10 345 11 4 245 304 175 161 133 195 195 272